Location: Hilde
(52.9479°N, 6.4449°E)
Time: 21:16:37
(UTC+00:00)

Cosmos 1544 Rocket - Pass Details

Date: 15 May 2026
Orbit: 597 x 623 km, 82.5° (Epoch: 8 June)

Event Time Altitude Azimuth Distance (km) Brightness Sun altitude
Exits shadow 19:59:07 - 166° (SSE) 2,820 6.4 -4.8°
Reaches altitude 10° 20:01:21 10° 158° (SSE) 1,957 5.6 -5.1°
Maximum altitude 20:05:19 36° 92° (E) 962 4.2 -5.5°
Drops below altitude 10° 20:09:17 10° 25° (NNE) 1,959 6.4 -5.9°
Sets 20:11:37 0° 17° (NNE) 2,864 7.4 -6.2°
